Regional Weather Roundup
Issued by NWS Upton, NY

Home | Current Version | Previous Version | Text Only | Print | Product List | Glossary On
Versions: 1 2 3 4 5 6 7 8 9 10 11 12 13 14 15 16 17 18 19 20 21 22 23 24 25 26 27
000
ASUS41 KOKX 270108
RWROKX

REGIONAL WEATHER ROUNDUP
NATIONAL WEATHER SERVICE NEW YORK NY
900 PM EDT SUN MAR 26 2017

NOTE: "FAIR" INDICATES FEW OR NO CLOUDS BELOW 12,000 FEET WITH NO
SIGNIFICANT WEATHER AND/OR OBSTRUCTIONS TO VISIBILITY.

NYZ071-072-176-178-NJZ106-104-270200-
NEW YORK CITY METRO AREA

CITY           SKY/WX    TMP DP  RH WIND       PRES   REMARKS
Central Park   CLOUDY    39  37  92 E8        30.39S FOG     WCI  33
Wall St Helipt CLOUDY    41  37  87 NE10      30.38S
LaGuardia APRT DRIZZLE   42  37  82 NE8       30.37R
Kennedy INTL   CLOUDY    40  39  97 NE10      30.38S FOG     WCI  33
Breezy Point     N/A     39 N/A N/A E13         N/A  WCI  32
Newark/Liberty DRIZZLE   40  38  93 NE8       30.36F FOG     WCI  34
Teterboro      CLOUDY    40  38  93 NE7       30.37S FOG
$$

NYZ177-179-078>081-270200-
LONG ISLAND NEW YORK

CITY           SKY/WX    TMP DP  RH WIND       PRES   REMARKS
Jones Beach      N/A     39 N/A N/A E15         N/A  WCI  31
Matinecock PT    N/A     37 N/A N/A E15         N/A  WCI  28
Farmingdale    CLOUDY    39  38  96 E9        30.37S FOG     WCI  33
MacArthur/ISP  CLOUDY    38  38 100 E13G21    30.35F FOG     WCI  30
Shirley        CLOUDY    38  36  92 E8        30.38S FOG     WCI  32
Westhampton    CLOUDY    38  34  85 E15G23    30.39S WCI  29
East Hampton   CLOUDY    38  33  81 E12       30.38F WCI  30
Montauk          N/A     39  33  79 E7        30.40F WCI  34
$$

NYZ052-065-067-270200-
HUDSON VALLEY

CITY           SKY/WX    TMP DP  RH WIND       PRES   REMARKS
White Plains   LGT RAIN  37  34  89 E9        30.36S VSB 1   WCI  30
Newburgh       CLOUDY    37  36  93 SE8       30.38R WCI  31
Montgomery     CLOUDY    38  33  82 SE7       30.36S WCI  33
Poughkeepsie   CLOUDY    38  31  76 SE6       30.37R WCI  33
Albany         CLOUDY    37  30  75 S7        30.35S WCI  32
$$

NJZ001-105-106-008-010-013-015-019>022-104-270200-
NEW JERSEY

CITY           SKY/WX    TMP DP  RH WIND       PRES   REMARKS
Newark/Liberty DRIZZLE   40  38  93 NE8       30.36F FOG     WCI  34
Teterboro      CLOUDY    40  38  93 NE7       30.37S FOG
Caldwell       CLOUDY    39  37  92 E7        30.36F FOG     WCI  34
Somerville     CLOUDY    40  38  93 E6        30.32F
Linden         CLOUDY    40  38  91 SE9       30.37F FOG     WCI  34
Sussex         CLOUDY    38  33  82 E5        30.33F WCI  34
Andover          N/A     37  34  89 CALM      30.32F
Trenton        CLOUDY    39  39 100 E13       30.31F FOG     WCI  31
Millville      CLOUDY    43  43 100 E10       30.29S FOG
Atlantic City  CLOUDY    43  41  93 NE12      30.31R FOG
Wrightstown    CLOUDY    39  39 100 E8        30.30S FOG     WCI  34
Toms River     LGT RAIN  41  40  96 E8        30.34R FOG
Belmar         LGT RAIN  40  39  97 NE12      30.34S FOG     WCI  33
$$

PAZ047>061-062-071-270200-
EASTERN PENNSYLVANIA

CITY           SKY/WX    TMP DP  RH WIND       PRES   REMARKS
Philadelphia   CLOUDY    42  39  89 E10       30.32S
Allentown      CLOUDY    40  35  83 E10       30.30F WCI  33
Scranton       CLOUDY    39  35  86 CALM      30.25R
$$

CTZ002-004>006-009-010-012-RIZ004-006-007-MAZ004-011-015-270200-
SOUTHERN NEW ENGLAND
 IN CT

CITY           SKY/WX    TMP DP  RH WIND       PRES   REMARKS
Bradley INTL   CLOUDY    38  31  76 SE5       30.40R WCI  34
Hartford       CLOUDY    39  29  67 E7        30.40S WCI  34
Danbury        CLOUDY    37  32  82 SE10      30.39R WCI  30
Wtrbury/Oxford CLOUDY    36  27  69 CALM      30.38R
Bridgeport     CLOUDY    40  34  79 E14       30.39F WCI  32
Meriden        CLOUDY    39  29  67 E6        30.39F WCI  35
New Haven      CLOUDY    38  33  82 E10       30.39F WCI  31
Chester        NOT AVBL
Groton         CLOUDY    39  30  70 E16G25    30.40F WCI  30
Wilimantic     CLOUDY    39  29  67 E3        30.41F

 IN RI

CITY           SKY/WX    TMP DP  RH WIND       PRES   REMARKS
Providence     CLOUDY    38  28  67 E9        30.43F WCI  31
Block Island   CLOUDY    38  32  79 E15G21    30.41F WCI  29
Westerly       CLOUDY    39  32  76 E13G21    30.41F WCI  31
 IN MA

CITY           SKY/WX    TMP DP  RH WIND       PRES   REMARKS
Boston         CLOUDY    37  29  72 SE13      30.45F WCI  29
Worcester      CLOUDY    33  26  75 E6        30.38S WCI  28
Westfield      CLOUDY    36  33  89 CALM      30.39R
Provincetown   CLOUDY    38  28  67 E8        30.47S WCI  32
Nantucket      LGT RAIN  38  29  70 E12       30.44F WCI  30
$$

ANZ330-335-338-340-345-350-353-355-270200-
COASTAL MARINE OBSERVATIONS


STATION/POSITION TIME  SKY/WX   TEMP    WIND        PRES    VSBY  WAVE
                                AIR SEA DIR/SP/G                  HT/PER
                 (UTC)          (F)     (DEG/KT/KT) (MB)    (MI)  (FT/S)
NY HARB ENTRANCE 2350            40 42   80/ 17/ 19 1027.6          5/ 7
20 S FIRE ISLAND 2350            40 40   90/ 19/ 23 1026.9          6/ 6
GREAT SOUTH BAY  NOT AVBL
23 SSW MONTAUK P 2350            40 43              1029.0          6/ 6
15 E BARNEGAT LI 0030               43                N/A           6/ 7
HUDSON CANYON    2350            46 45  100/ 16/ 17 1026.2          7/ 7
KINGS POINT      0024            39 39              1028.5
EXECUTION ROCKS  NOT AVBL
CENTRAL LI SOUND 0030            39     100/ 17/ 19   N/A           3/ 4
EASTERN LI SOUND NOT AVBL
ROBBINS REEF     0024            40      80/  9/ 11 1028.7
$$


>>>>>>>>>>>>>>>>>>>>>>>>>>>> KEY <<<<<<<<<<<<<<<<<<<<<<<<<<<
>                                                          <
>     SKY/WX - Sky Condition/Present Weather               <
>     TMP    - Temperature in Fahrenheit                   <
>     DP     - Dew Point in Fahrenheit                     <
>     RH     - Relative Humidity in Percent                <
>     WIND   - Direction (from) and Speed in MPH           <
>     PRES   - Mean Sea Level Pressure (inches of Hg)      <
>     WCI    - Wind Chill Index                            <
>     VSB    - VISIBILITY IN MILES                         <
>     HX     - HEAT INDEX                                  <
>     TC     - TEMPERATURE IN CELSIUS                      <
>     VRB    - VARIABLE WIND DIRECTION                     <
>                                                          <
>>>>>>>>>>>>>>>>>>>>>>>>>>>> KEY <<<<<<<<<<<<<<<<<<<<<<<<<<<




USA.gov is the U.S. government's official web portal to all federal, state and local government web resources and services.